Погода в Анциферовом

Россия / Новгородская область     58°57′56″N   34°00′38″E
темп.,
°C
ветер,
м/с
пор.,
м/с
влажн.,
%
обл.,
%
осадки,
мм/ч
давл.,
гПа
погр.,
м
27 января, чт
чт2700:00−11ююз3996100 0.0 1014206
03:00−10ю31095100 0.0 1012253
06:00−10ю31192100 0.0 1010314
09:00−9ю41291100 0.0 1008369
12:00−8ю41290100 0.0 1006407
15:00−7ю41293100 0.1 1004462
18:00−7ю41194100 0.3 1003480
21:00−7ююв41194100 0.6 1001412
28 января, пт
пт2800:00−8ююв41194100 0.1 1000394
03:00−7ююв41294100 0.3 998397
06:00−7юв41295100 0.4 997444
09:00−7юв41195100 0.9 997429
12:00−6юв4994100 0.2 997424
15:00−5юв3896100 0.9 996396
18:00−6юв379688 0.6 998288
21:00−7вюв269783 0.8 998167
29 января, сб
сб2900:00−8в139798 0.4 99980
03:00−8ссв1198100 1.0 100114
06:00−8ссз2696100 0.6 1001194
09:00−8сз389698 0.9 1003277
12:00−7сз3794100 0.1 1003466
15:00−8з2595100 0.2 1003355
18:00−14зюз2410098 0.1 100343
21:00−17ююз23100100 0.1 100142
30 января, вс
вс3000:00−14ю310100100 0.1 997200
03:00−13юв41496100 0.1 991323
06:00−10юв51788100 0.0 984474
09:00−8юв61694100 0.8 980752
12:00−7вюв61594100 0.9 978788
15:00−6вюв61494100 2.3 978831
18:00−6вюв61394100 0.7 979678
21:00−6в51295100 1.4 980570
31 января, пн
пн3100:00−7в51294100 0.7 982482
03:00−7всв41095100 1.2 984466
06:00−7всв41094100 0.4 986423
09:00−8св3109498 0.6 988398
12:00−7св3894100 0.2 991452
15:00−6ссв3795100 0.4 992510
18:00−8с389594 0.3 994389
21:00−10с389594 0.4 996313